Weather History for KICR - March, 2013

Change the Weather History Date:

Monday, March 25, 2013

  Actual Average Record
Temperature  
Mean Temperature 22 °F 40 °F  
Max Temperature 29 °F 52 °F 53 °F (2012)
Min Temperature 14 °F 28 °F 12 °F (2014)
Degree Days  
Heating Degree Days 43 25  
Month to date heating degree days 881 733  
Since 1 July heating degree days 5544 5742  
Cooling Degree Days 0 0  
Month to date cooling degree days 0 0  
Year to date cooling degree days 0 0  
Moisture  
Dew Point 14 °F    
Average Humidity 73    
Maximum Humidity 88    
Minimum Humidity 58    
Precipitation  
Precipitation T in 0.06 in 0.00 in (2015)
Month to date precipitation 0.57 0.90  
Year to date precipitation 0.57 1.66  
Sea Level Pressure  
Sea Level Pressure 30.35 in    
Wind  
Wind Speed 12 mph (NNW)    
Max Wind Speed 21 mph    
Max Gust Speed 25 mph    
Visibility 6 miles    
Events Snow    
T = Trace of Precipitation, MM = Missing Value Source: NWS Daily Summary

Daily Weather History Graph

Daily Weather History Graph

Search for Another Location

Airport or City:

Trip Planner

Search our weather history database for the weather conditions in past years. The results will help you decide how hot, cold, wet, or windy it might be!

Date:

Astronomy

Mar. 25, 2013 Rise Set
Actual Time 7:33 AM CDT 7:58 PM CDT
Civil Twilight 7:04 AM CDT 8:26 PM CDT
Nautical Twilight 6:30 AM CDT 9:00 PM CDT
Astronomical Twilight 5:56 AM CDT 9:35 PM CDT
Moon 6:30 PM CDT (3/25) 6:19 AM CDT (3/25)
Length of Visible Light 13h 22m
Length of Day
12h 24m
Waxing Gibbous, 96% of the Moon is Illuminated
Mar 25
Waxing Gibbous
Mar 27
Full
Apr 2
Last Quarter
Apr 10
New
Apr 18
First Quarter

Hourly Weather History & Observations

Time (CDT) Temp. Windchill Dew Point Humidity Pressure Visibility Wind Dir Wind Speed Gust Speed Precip Events Conditions
12:15 AM 21.2 °F 7.8 °F 19.4 °F 93% 30.23 in 2.0 mi North 15.0 mph - 0.00 in Snow Light Snow
12:17 AM 21.2 °F 7.3 °F 19.4 °F 93% 30.23 in 3.0 mi North 16.1 mph - 0.00 in Snow Light Snow
12:53 AM 21.0 °F 7.1 °F 17.1 °F 85% 30.33 in 10.0 mi NNW 16.1 mph - 0.00 in   Overcast
1:53 AM 21.0 °F 8.1 °F 17.1 °F 85% 30.34 in 10.0 mi NNW 13.8 mph - N/A   Overcast
2:53 AM 21.9 °F 8.7 °F 18.0 °F 85% 30.34 in 9.0 mi NNW 15.0 mph - 0.00 in Snow Light Snow
3:02 AM 21.2 °F 5.6 °F 17.6 °F 86% 30.25 in 9.0 mi NNW 20.7 mph 25.3 mph 0.00 in Snow Light Snow
3:12 AM 21.2 °F 7.3 °F 15.8 °F 80% 30.25 in 10.0 mi NNW 16.1 mph - 0.00 in   Overcast
3:53 AM 21.0 °F 7.6 °F 16.0 °F 81% 30.34 in 6.0 mi NNW 15.0 mph - 0.00 in Snow Light Snow
4:04 AM 21.2 °F 6.8 °F 17.6 °F 86% 30.25 in 7.0 mi NW 17.3 mph - 0.00 in Snow Light Snow
4:43 AM 17.6 °F 3.7 °F 12.2 °F 79% 30.26 in 10.0 mi NW 13.8 mph - 0.00 in   Mostly Cloudy
4:53 AM 17.1 °F 3.0 °F 12.9 °F 84% 30.35 in 10.0 mi NW 13.8 mph - 0.00 in   Mostly Cloudy
5:53 AM 15.1 °F 0.5 °F 10.0 °F 80% 30.37 in 10.0 mi NW 13.8 mph - N/A   Clear
6:53 AM 14.0 °F 0.5 °F 10.0 °F 84% 30.39 in 10.0 mi NW 11.5 mph - N/A   Clear
7:51 AM 15.8 °F 1.4 °F 10.4 °F 79% 30.30 in 4.0 mi NW 13.8 mph - 0.00 in Snow Light Snow
7:53 AM 16.0 °F 1.7 °F 10.9 °F 81% 30.40 in 3.0 mi NW 13.8 mph - 0.00 in Snow Light Snow
8:06 AM 15.8 °F 1.4 °F 12.2 °F 86% 30.30 in 2.0 mi NW 13.8 mph - 0.00 in Snow Light Snow
8:13 AM 15.8 °F 1.4 °F 12.2 °F 86% 30.30 in 1.2 mi NW 13.8 mph - 0.00 in Snow Light Snow
8:37 AM 17.6 °F 2.7 °F 12.2 °F 79% 30.30 in 2.5 mi NW 16.1 mph - 0.00 in Snow Light Snow
8:49 AM 17.6 °F 2.7 °F 12.2 °F 79% 30.31 in 3.0 mi NW 16.1 mph - 0.00 in Snow Light Snow
8:53 AM 17.1 °F 3.0 °F 12.9 °F 84% 30.41 in 3.0 mi NW 13.8 mph - 0.00 in Snow Light Snow
9:01 AM 17.6 °F 2.7 °F 12.2 °F 79% 30.31 in 2.5 mi NW 16.1 mph - 0.00 in Snow Light Snow
9:17 AM 17.6 °F 3.2 °F 14.0 °F 86% 30.32 in 3.0 mi NNW 15.0 mph - 0.00 in Snow Light Snow
9:53 AM 19.0 °F 5.0 °F 14.0 °F 81% 30.42 in 4.0 mi NW 15.0 mph - 0.00 in Snow Light Snow
10:01 AM 19.4 °F 4.5 °F 14.0 °F 80% 30.32 in 4.0 mi NW 17.3 mph - 0.00 in Snow Light Snow
10:24 AM 19.4 °F 4.1 °F 15.8 °F 86% 30.32 in 2.0 mi NW 18.4 mph - 0.00 in Snow Light Snow
10:53 AM 19.9 °F 3.9 °F 15.1 °F 81% 30.43 in 2.5 mi NNW 20.7 mph - 0.00 in Snow Light Snow
10:59 AM 19.4 °F 3.6 °F 15.8 °F 86% 30.33 in 3.0 mi NNW 19.6 mph - 0.00 in Snow Light Snow
11:36 AM 21.2 °F 7.8 °F 15.8 °F 80% 30.33 in 6.0 mi NNW 15.0 mph - 0.00 in Snow Light Snow
11:53 AM 21.9 °F 8.2 °F 15.1 °F 75% 30.43 in 5.0 mi NNW 16.1 mph - 0.00 in Snow Light Snow
12:53 PM 21.9 °F 8.2 °F 16.0 °F 78% 30.43 in 2.0 mi NNW 16.1 mph - 0.00 in Snow Light Snow
1:03 PM 23.0 °F 10.1 °F 15.8 °F 74% 30.33 in 3.0 mi North 15.0 mph - 0.00 in Snow Light Snow
1:12 PM 23.0 °F 10.1 °F 15.8 °F 74% 30.33 in 2.0 mi NNW 15.0 mph - 0.00 in Snow Light Snow
1:32 PM 23.0 °F 10.1 °F 15.8 °F 74% 30.32 in 3.0 mi NNW 15.0 mph 19.6 mph 0.00 in Snow Light Snow
1:53 PM 23.0 °F 12.4 °F 14.0 °F 68% 30.42 in 9.0 mi North 10.4 mph - 0.00 in   Overcast
2:03 PM 24.8 °F 12.9 °F 12.2 °F 59% 30.32 in 10.0 mi NW 13.8 mph - N/A   Overcast
2:53 PM 24.1 °F 12.0 °F 14.0 °F 65% 30.41 in 8.0 mi North 13.8 mph - 0.00 in Snow Light Snow
3:53 PM 26.1 °F 14.5 °F 15.1 °F 63% 30.40 in 10.0 mi North 13.8 mph - 0.00 in   Overcast
4:53 PM 28.0 °F 18.1 °F 16.0 °F 61% 30.39 in 10.0 mi NW 11.5 mph 19.6 mph N/A   Overcast
5:10 PM 28.4 °F 17.0 °F 15.8 °F 59% 30.30 in 10.0 mi North 15.0 mph - N/A   Overcast
5:43 PM 28.4 °F 18.0 °F 15.8 °F 59% 30.30 in 10.0 mi North 12.7 mph - N/A   Scattered Clouds
5:53 PM 28.0 °F 18.6 °F 15.1 °F 58% 30.39 in 10.0 mi North 10.4 mph - N/A   Scattered Clouds
6:53 PM 27.0 °F 17.3 °F 15.1 °F 61% 30.40 in 10.0 mi North 10.4 mph - N/A   Clear
7:53 PM 23.0 °F 14.7 °F 15.1 °F 72% 30.41 in 10.0 mi NNE 6.9 mph - N/A   Clear
8:53 PM 21.9 °F 15.7 °F 12.9 °F 68% 30.40 in 10.0 mi North 4.6 mph - N/A   Clear
9:53 PM 21.0 °F 14.6 °F 12.9 °F 71% 30.41 in 10.0 mi ENE 4.6 mph - N/A   Clear
10:53 PM 19.0 °F - 12.0 °F 74% 30.41 in 10.0 mi Calm Calm - N/A   Clear
11:53 PM 17.1 °F 7.6 °F 10.9 °F 77% 30.41 in 10.0 mi ESE 6.9 mph - N/A   Clear